Regional Weather Roundup
Issued by NWS Sterling, VA

Home | Current Version | Previous Version | Text Only | Print | Product List | Glossary Off
Versions: 1 2 3 4 5 6 7 8 9 10 11 12 13 14 15 16 17 18 19 20 21 22 23 24 25 26 27 28 29 30 31 32 33 34 35 36 37 38 39 40 41 42 43 44 45 46 47

000
ASUS41 KLWX 202210
RWRLWX

REGIONAL WEATHER ROUNDUP
NATIONAL WEATHER SERVICE BALTIMORE MD/WASHINGTON DC
600 PM EDT MON OCT 20 2014

Note: "FAIR" indicates few or no clouds below 12,000 feet
with no significant weather and/or obstructions to visibility.
 TC=TEMPERATURE CELSIUS

 * =Non NWS site. Station does not report precipitation (e.g. rain,
    snow, etc.), thunder, or fog.

DCZ001-MDZ009-015-VAZ040>042-051-053>054-202300-
WASHINGTON METRO

CITY           SKY/WX    TMP DP  RH WIND       PRES   REMARKS
WASHINGTON NAT MOCLDY    66  45  46 S8        29.95S
DULLES         MOCLDY    61  46  57 S5        29.94S
ANDREWS AFB    MOCLDY    61  46  58 S5        29.95R
FT BELVOIR     MOCLDY    64  47  55 VRB3      29.95S
QUANTICO       MOCLDY    64  49  57 SW8       29.95S
COLLEGE PARK*  MOCLDY    64  45  48 S3        29.94S
LEESBURG*      CLOUDY    63  50  63 CALM      29.95S
MANASSAS*      CLEAR     64  48  55 S3        29.94S
GAITHERSBURG*  CLOUDY    63  45  51 S3        29.98S

$$

MDZ006>007-011-014-202300-
BALTIMORE METRO

CITY           SKY/WX    TMP DP  RH WIND       PRES   REMARKS
BWI AIRPORT    MOCLDY    63  44  50 S3        29.95R
MD SCIENCE CTR   N/A     65  46  50 MISG      29.95S
MARTIN STATE   PTCLDY    63  52  67 SE13      29.97S
ANNAPOLIS      PTCLDY    61  46  57 S8        29.95S
FORT MEADE*    PTCLDY    61  46  59 CALM      29.97S

$$

MDZ012-015-019>023-202300-
MARYLAND EASTERN SHORE

CITY           SKY/WX    TMP DP  RH WIND       PRES   REMARKS
OCEAN CITY     CLEAR     61  47  59 S12G18    29.99F
SALISBURY      CLEAR     62  41  46 S7        29.99S
BAY BRIDGE AP*   N/A     63  43  48 S10G16    29.96F
EASTON*        MOCLDY    63  46  55 S9        30.01S

$$

MDZ017>025-202300-
SOUTHERN MARYLAND

CITY           SKY/WX    TMP DP  RH WIND       PRES   REMARKS
PATUXENT RIVER MOCLDY    62  39  42 S7        29.97S
ST INIGOES     CLEAR     63  39  41 S9        29.97S
LEONARDTOWN*   CLEAR     61  41  48 S3        29.98S

$$

MDZ003>005-202300-
NORTH CENTRAL MARYLAND

CITY           SKY/WX    TMP DP  RH WIND       PRES   REMARKS
FREDERICK*     CLEAR     63  46  55 CALM      29.97S
HAGERSTOWN APT CLOUDY    60  39  45 SE3       29.94S
WESTMINSTER*   CLOUDY    61  43  51 W3        29.95S

$$

MDZ501>502-202300-
WESTERN MARYLAND

CITY           SKY/WX    TMP DP  RH WIND       PRES   REMARKS
OAKLAND*       CLOUDY    48  34  57 S9        29.92F
CUMBERLAND*    CLOUDY    55  39  54 CALM      29.97F

$$

VAZ025>031-202300-
SHENANDOAH VALLEY

CITY           SKY/WX    TMP DP  RH WIND       PRES   REMARKS
WINCHESTER*    CLOUDY    61  37  41 CALM      29.94S
FRONT ROYAL*   MOCLDY    61  46  59 CALM      29.91F
LURAY*         FAIR      64  50  59 CALM      29.92S
NEW MARKET*    FAIR      61  47  59 CALM      29.91F
STAUNTON*      CLOUDY    64  41  43 S7        29.95S
WAYNESBORO*    FAIR      62  45  52 S6        29.94S

$$

WVZ021-048>050-054>055-202300-
EASTERN WEST VIRGINIA PANHANDLE

CITY           SKY/WX    TMP DP  RH WIND       PRES   REMARKS
MARTINSBURG    CLOUDY    61  40  45 N3        29.95R
PETERSBURG*    CLOUDY   N/A N/A N/A E3        29.94F

$$

VAZ036>039-050-202300-
CENTRAL FOOTHILLS

CITY           SKY/WX    TMP DP  RH WIND       PRES   REMARKS
CHARLOTTESVILL PTCLDY    64  47  53 S10       29.93S
CULPEPER*      CLOUDY    64  48  55 S5        29.94S
ORANGE*        MOCLDY    63  50  63 S3        29.96R
GORDONSVILLE*  FAIR      63  49  60 S3        29.94R
WARRENTON*     FAIR      64  53  68 CALM      29.93S

$$

VAZ055>057-202300-
NORTH AND CENTRAL PIEDMONT

CITY           SKY/WX    TMP DP  RH WIND       PRES   REMARKS
FREDERICKSBRG* MOCLDY    66  47  51 S7        29.94S
STAFFORD*      MOCLDY    64  45  50 S3        29.98S

$$

NCZ024-NYZ072-PAZ021-071-VAZ022-071-202300-
OTHER REGIONAL OBSERVATIONS

CITY           SKY/WX    TMP DP  RH WIND       PRES   REMARKS
NEW YORK CITY  CLEAR     58  37  45 VRB5      30.00S
PHILADELPHIA   MOCLDY    60  43  53 SE6       29.97F
PITTSBURGH     CLOUDY    56  41  57 S8        29.89R
ROANOKE        MOCLDY    65  47  52 S7        29.96S
RICHMOND       MOCLDY    64  42  44 S9        29.97F
RALEIGH        PTCLDY    66  46  48 W6        29.99S

$$

ANZ530>537-202300-
MARINE OBSERVATIONS

STATION/POSITION TIME  TEMP    WIND        PRES
                       AIR SEA DIR/SP/G
                 (UTC) (F)     (DEG/KT/KT) (MB)
THOMAS PT LIGHT  2200   64 64  180/ 17/ 18 1015.4R
BALT KEY BRIDGE  2200   63     160/ 10/ 10 1013.7R
COVE POINT       2200   63     200/ 13/ 15 1014.7S
LEWISETTA        2200   63 62  200/  8/  9 1014.7R
SOLOMONS ISLAND  2200      66                N/A
PINEY POINT      2200          210/ 10/ 11   N/A

$$



USA.gov is the U.S. government's official web portal to all federal, state and local government web resources and services.